User: anonymous   Login
Location: Unspecified
(0.0000°N, 0.0000°E)
Time: 17:09:24
(UTC+01:00)
Language:

Cosmos 1898 Rocket - Orbit

View from above orbital plane
View from above orbital plane
View from above satellite
View from above satellite

Ground track
Ground track

The orbit data is extracted from the following two-line orbital elements,

1 18586U 87098B   14328.25171017  .00000200  00000-0  76941-4 0  1795
2 18586 074.0071 218.4914 0020200 138.4685 000.7977 14.36502908412956
Epoch (UTC): 24 November 2014 06:02:27
Eccentricity: 0.0020200
inclination: 74.0071°
perigee height: 755 km
apogee height: 784 km
right ascension of ascending node: 218.4914°
argument of perigee: 138.4685°
revolutions per day: 14.36502908
mean anomaly at epoch: 0.7977°
orbit number at epoch: 41295

The dashed part of the orbit path shows where the satellite is in the earth's shadow,  

DLR